AIC789 VAPO-VECC

Flight info

Callsign AIC789
Flight time 2h 7m
Altitude 37000
Route UBSAB2A UBSAB J2 NNP W108 TEGIG G450 JJS JJS2G
Aircraft B738/M-SDE2E3FGHIRWXY/LB1

Departure

Time 2026-05-04 10:59
Airport Pune International Airport (VAPO)

Arrival

Time 2026-05-04 13:07
Airport Netaji Subhash Chandra Bose International Airport (VECC)
Time Latitude Longitude Altitude Speed Heading
2026-05-04 10:00 18.58018 73.90798 1922 ft 0 kts 202°
2026-05-04 10:02 18.58018 73.90799 1922 ft 0 kts 184°
2026-05-04 10:08 18.58018 73.90798 1922 ft 0 kts 202°
2026-05-04 10:44 18.58074 73.90798 1926 ft 1 kts 103°
2026-05-04 10:45 18.58075 73.90792 1925 ft 1 kts 101°
2026-05-04 10:45 18.58076 73.90786 1922 ft 1 kts 99°
2026-05-04 10:45 18.58076 73.90784 1923 ft 0 kts 99°
2026-05-04 10:49 18.58062 73.90874 1924 ft 13 kts 98°
2026-05-04 10:49 18.58049 73.90968 1924 ft 13 kts 97°
2026-05-04 10:50 18.58060 73.91018 1924 ft 1 kts 21°
2026-05-04 10:51 18.58110 73.91287 1924 ft 7 kts 92°
2026-05-04 10:52 18.58107 73.91340 1924 ft 7 kts 95°
2026-05-04 10:52 18.58105 73.91392 1924 ft 7 kts 86°
2026-05-04 10:52 18.58100 73.91447 1925 ft 9 kts 96°
2026-05-04 10:54 18.58058 73.92100 1924 ft 12 kts 94°
2026-05-04 10:54 18.58053 73.92184 1924 ft 11 kts 94°
2026-05-04 10:56 18.58020 73.92713 1924 ft 9 kts 93°
2026-05-04 10:56 18.58016 73.92781 1924 ft 9 kts 93°
2026-05-04 10:56 18.58012 73.92846 1924 ft 9 kts 93°
2026-05-04 10:57 18.58009 73.92910 1924 ft 9 kts 93°
2026-05-04 10:57 18.58005 73.92972 1924 ft 8 kts 93°
2026-05-04 10:57 18.58028 73.93001 1924 ft 5 kts 15°
2026-05-04 10:57 18.58064 73.93004 1924 ft 5 kts
2026-05-04 10:58 18.58099 73.93006 1924 ft 5 kts
2026-05-04 10:58 18.58134 73.93008 1924 ft 5 kts
2026-05-04 10:58 18.58163 73.92992 1924 ft 5 kts 303°
2026-05-04 10:58 18.58168 73.92955 1924 ft 5 kts 274°
2026-05-04 10:59 18.58181 73.92738 1924 ft 67 kts 273°
2026-05-04 10:59 18.58227 73.91981 1924 ft 137 kts 273°
2026-05-04 10:59 18.58319 73.90810 2204 ft 172 kts 271°
2026-05-04 10:59 18.58437 73.89487 2686 ft 195 kts 278°
2026-05-04 11:00 18.58571 73.87970 3045 ft 220 kts 271°
2026-05-04 11:01 18.64690 73.76675 7180 ft 349 kts 352°
2026-05-04 11:02 18.67153 73.76913 7908 ft 365 kts 14°
2026-05-04 11:02 18.69436 73.78170 8671 ft 379 kts 37°
2026-05-04 11:05 18.69956 74.12501 13442 ft 252 kts 58°
2026-05-04 11:06 18.70796 74.14124 13502 ft 255 kts 58°
2026-05-04 11:06 18.71693 74.15823 13653 ft 276 kts 57°
2026-05-04 11:06 18.72668 74.17659 13811 ft 298 kts 58°
2026-05-04 11:06 18.73721 74.19637 13966 ft 320 kts 58°
2026-05-04 11:08 18.82370 74.35859 17084 ft 379 kts 58°
2026-05-04 11:10 18.91703 74.53360 20581 ft 402 kts 58°
2026-05-04 11:12 19.01551 74.71885 23498 ft 424 kts 59°
2026-05-04 11:12 19.03001 74.74616 23806 ft 427 kts 59°
2026-05-04 11:12 19.04479 74.77401 24126 ft 430 kts 59°
2026-05-04 11:12 19.05925 74.80128 24456 ft 432 kts 59°
2026-05-04 11:13 19.07400 74.82912 24765 ft 435 kts 59°
2026-05-04 11:13 19.08884 74.85714 25099 ft 437 kts 59°
2026-05-04 11:13 19.10375 74.88529 25394 ft 440 kts 59°
2026-05-04 11:13 19.11873 74.91359 25697 ft 443 kts 59°
2026-05-04 11:16 19.26763 75.19528 28450 ft 465 kts 59°
2026-05-04 11:16 19.28351 75.22518 28707 ft 467 kts 59°
2026-05-04 11:16 19.29947 75.25524 28954 ft 470 kts 59°
2026-05-04 11:17 19.31547 75.28543 29202 ft 472 kts 60°
2026-05-04 11:17 19.33156 75.31579 29448 ft 474 kts 60°
2026-05-04 11:19 19.44567 75.53175 30893 ft 486 kts 59°
2026-05-04 11:19 19.46237 75.56343 31093 ft 487 kts 59°
2026-05-04 11:19 19.47894 75.59488 31271 ft 489 kts 59°
2026-05-04 11:19 19.49532 75.62597 31451 ft 490 kts 59°
2026-05-04 11:20 19.51160 75.65778 31634 ft 492 kts 61°
2026-05-04 11:20 19.52696 75.69025 31808 ft 494 kts 63°
2026-05-04 11:20 19.54188 75.72303 32028 ft 494 kts 63°
2026-05-04 11:20 19.55672 75.75588 32291 ft 493 kts 63°
2026-05-04 11:22 19.66163 75.98332 34079 ft 488 kts 62°
2026-05-04 11:22 19.67657 76.01562 34314 ft 488 kts 62°
2026-05-04 11:23 19.69150 76.04793 34552 ft 487 kts 62°
2026-05-04 11:23 19.70642 76.08021 34788 ft 486 kts 62°
2026-05-04 11:24 19.79533 76.27273 36100 ft 483 kts 62°
2026-05-04 11:25 19.81004 76.30465 36291 ft 482 kts 62°
2026-05-04 11:25 19.82479 76.33667 36530 ft 481 kts 62°
2026-05-04 11:25 19.83944 76.36851 36756 ft 480 kts 62°
2026-05-04 11:27 19.97123 76.65566 36787 ft 476 kts 62°
2026-05-04 11:28 19.99999 76.71851 36786 ft 476 kts 62°
2026-05-04 11:28 20.02893 76.78184 36785 ft 476 kts 62°
2026-05-04 11:29 20.05790 76.84530 36782 ft 478 kts 62°
2026-05-04 11:29 20.08697 76.90905 36783 ft 480 kts 62°
2026-05-04 11:33 20.29234 77.36162 36748 ft 487 kts 63°
2026-05-04 11:33 20.32168 77.42659 36747 ft 486 kts 63°
2026-05-04 11:34 20.35096 77.49150 36743 ft 485 kts 63°
2026-05-04 11:34 20.38015 77.55630 36740 ft 485 kts 63°
2026-05-04 11:35 20.40929 77.62104 36739 ft 484 kts 63°
2026-05-04 11:35 20.43816 77.68527 36738 ft 484 kts 63°
2026-05-04 11:36 20.46718 77.74993 36733 ft 483 kts 63°
2026-05-04 11:36 20.49615 77.81456 36735 ft 483 kts 63°
2026-05-04 11:37 20.52513 77.87923 36729 ft 483 kts 63°
2026-05-04 11:37 20.55515 77.94334 36731 ft 483 kts 61°
2026-05-04 11:38 20.58596 78.00711 36727 ft 484 kts 61°
2026-05-04 11:38 20.61670 78.07101 36725 ft 484 kts 62°
2026-05-04 11:39 20.64730 78.13510 36730 ft 485 kts 62°
2026-05-04 11:41 20.75431 78.36035 36726 ft 487 kts 62°
2026-05-04 11:41 20.78490 78.42492 36725 ft 487 kts 62°
2026-05-04 11:42 20.81551 78.48958 36729 ft 488 kts 62°
2026-05-04 11:42 20.84612 78.55434 36719 ft 488 kts 62°
2026-05-04 11:43 20.87653 78.61875 36727 ft 488 kts 62°
2026-05-04 11:43 20.90731 78.68401 36719 ft 489 kts 62°
2026-05-04 11:44 20.93793 78.74901 36734 ft 490 kts 62°
2026-05-04 11:44 20.96858 78.81415 36731 ft 491 kts 62°
2026-05-04 11:45 20.99928 78.87950 36732 ft 492 kts 62°
2026-05-04 11:45 21.03004 78.94505 36724 ft 493 kts 62°
2026-05-04 11:46 21.06080 79.01069 36734 ft 494 kts 62°
2026-05-04 11:46 21.09127 79.07619 36713 ft 495 kts 63°
2026-05-04 11:47 21.12035 79.14308 36719 ft 496 kts 65°
2026-05-04 11:47 21.14913 79.21077 36721 ft 496 kts 64°
2026-05-04 11:48 21.17786 79.27794 36724 ft 496 kts 64°
2026-05-04 11:48 21.20655 79.34467 36727 ft 496 kts 64°
2026-05-04 11:49 21.23540 79.41171 36724 ft 495 kts 64°
2026-05-04 11:49 21.26418 79.47870 36724 ft 494 kts 64°
2026-05-04 11:50 21.29286 79.54558 36739 ft 493 kts 64°
2026-05-04 11:50 21.32148 79.61240 36736 ft 493 kts 64°
2026-05-04 11:51 21.35004 79.67918 36744 ft 492 kts 65°
2026-05-04 11:51 21.37853 79.74589 36752 ft 492 kts 65°
2026-05-04 11:52 21.40698 79.81257 36756 ft 491 kts 65°
2026-05-04 11:52 21.43540 79.87928 36758 ft 491 kts 65°
2026-05-04 11:53 21.46380 79.94605 36751 ft 492 kts 65°
2026-05-04 11:53 21.48952 80.01399 36766 ft 492 kts 75°
2026-05-04 11:55 21.55237 80.30071 36769 ft 494 kts 77°
2026-05-04 11:56 21.56838 80.37192 36783 ft 494 kts 77°
2026-05-04 11:56 21.58459 80.44426 36774 ft 494 kts 77°
2026-05-04 11:57 21.60062 80.51602 36789 ft 494 kts 77°
2026-05-04 11:57 21.61650 80.58737 36782 ft 494 kts 77°
2026-05-04 11:58 21.63256 80.65966 36783 ft 494 kts 77°
2026-05-04 11:58 21.64847 80.73145 36785 ft 493 kts 77°
2026-05-04 11:59 21.66166 80.79106 36785 ft 493 kts 77°
2026-05-04 11:59 21.67749 80.86275 36779 ft 493 kts 77°
2026-05-04 12:00 21.69329 80.93446 36781 ft 493 kts 77°
2026-05-04 12:00 21.70905 81.00615 36778 ft 492 kts 77°
2026-05-04 12:01 21.72476 81.07776 36774 ft 492 kts 77°
2026-05-04 12:02 21.77939 81.32799 36769 ft 492 kts 77°
2026-05-04 12:03 21.79496 81.39964 36762 ft 492 kts 77°
2026-05-04 12:03 21.81051 81.47141 36770 ft 492 kts 77°
2026-05-04 12:04 21.82603 81.54314 36771 ft 492 kts 77°
2026-05-04 12:04 21.84152 81.61495 36774 ft 493 kts 78°
2026-05-04 12:05 21.85699 81.68680 36777 ft 493 kts 78°
2026-05-04 12:05 21.87245 81.75876 36791 ft 494 kts 78°
2026-05-04 12:06 21.88789 81.83079 36785 ft 494 kts 78°
2026-05-04 12:06 21.90329 81.90281 36780 ft 494 kts 78°
2026-05-04 12:07 21.91872 81.97509 36775 ft 495 kts 78°
2026-05-04 12:07 21.93409 82.04731 36784 ft 495 kts 78°
2026-05-04 12:08 21.94945 82.11962 36770 ft 495 kts 78°
2026-05-04 12:08 21.96479 82.19199 36767 ft 495 kts 78°
2026-05-04 12:09 21.98008 82.26429 36763 ft 495 kts 78°
2026-05-04 12:09 21.99535 82.33666 36761 ft 495 kts 78°
2026-05-04 12:10 22.01056 82.40893 36769 ft 495 kts 78°
2026-05-04 12:10 22.02574 82.48123 36756 ft 494 kts 78°
2026-05-04 12:11 22.04087 82.55342 36765 ft 494 kts 78°
2026-05-04 12:11 22.05596 82.62562 36759 ft 493 kts 78°
2026-05-04 12:12 22.07100 82.69771 36771 ft 493 kts 78°
2026-05-04 12:12 22.08598 82.76973 36780 ft 492 kts 78°
2026-05-04 12:14 22.14560 83.05790 36803 ft 492 kts 78°
2026-05-04 12:15 22.16042 83.12995 36805 ft 492 kts 78°
2026-05-04 12:15 22.17523 83.20214 36815 ft 493 kts 78°
2026-05-04 12:16 22.19000 83.27432 36807 ft 493 kts 78°
2026-05-04 12:16 22.20477 83.34662 36824 ft 493 kts 78°
2026-05-04 12:17 22.21940 83.41844 36824 ft 494 kts 78°
2026-05-04 12:17 22.23410 83.49080 36833 ft 494 kts 78°
2026-05-04 12:18 22.24878 83.56320 36828 ft 494 kts 78°
2026-05-04 12:18 22.26344 83.63565 36824 ft 494 kts 78°
2026-05-04 12:19 22.27805 83.70809 36831 ft 494 kts 78°
2026-05-04 12:19 22.29262 83.78048 36832 ft 493 kts 78°
2026-05-04 12:20 22.30716 83.85288 36825 ft 493 kts 78°
2026-05-04 12:20 22.32166 83.92522 36837 ft 493 kts 78°
2026-05-04 12:21 22.33748 83.99721 36833 ft 493 kts 76°
2026-05-04 12:21 22.35446 84.06887 36828 ft 493 kts 76°
2026-05-04 12:22 22.37131 84.14061 36826 ft 493 kts 76°
2026-05-04 12:22 22.38790 84.21249 36836 ft 493 kts 76°
2026-05-04 12:23 22.40439 84.28445 36827 ft 493 kts 76°
2026-05-04 12:23 22.42084 84.35640 36823 ft 493 kts 76°
2026-05-04 12:24 22.43729 84.42846 36833 ft 494 kts 76°
2026-05-04 12:24 22.45361 84.50009 36820 ft 495 kts 76°
2026-05-04 12:25 22.47005 84.57239 36817 ft 496 kts 76°
2026-05-04 12:25 22.48660 84.64531 36812 ft 496 kts 76°
2026-05-04 12:26 22.50290 84.71732 36799 ft 496 kts 76°
2026-05-04 12:26 22.51928 84.78985 36821 ft 497 kts 76°
2026-05-04 12:27 22.53557 84.86253 36827 ft 497 kts 76°
2026-05-04 12:27 22.55131 84.93535 36844 ft 497 kts 77°
2026-05-04 12:28 22.56691 85.00832 36863 ft 499 kts 77°
2026-05-04 12:28 22.58260 85.08162 36856 ft 500 kts 77°
2026-05-04 12:29 22.59830 85.15486 36850 ft 500 kts 77°
2026-05-04 12:29 22.61396 85.22805 36871 ft 499 kts 77°
2026-05-04 12:30 22.62958 85.30122 36861 ft 499 kts 77°
2026-05-04 12:30 22.64516 85.37439 36870 ft 498 kts 77°
2026-05-04 12:31 22.66070 85.44755 36867 ft 499 kts 77°
2026-05-04 12:31 22.67620 85.52068 36868 ft 499 kts 77°
2026-05-04 12:32 22.69930 85.63001 36866 ft 498 kts 77°
2026-05-04 12:33 22.71470 85.70313 36865 ft 498 kts 77°
2026-05-04 12:33 22.73008 85.77632 36855 ft 498 kts 77°
2026-05-04 12:34 22.73892 85.81844 36845 ft 498 kts 77°
2026-05-04 12:35 22.74106 85.82869 36839 ft 498 kts 77°
2026-05-04 12:36 22.75638 85.90186 36815 ft 498 kts 77°
2026-05-04 12:36 22.77166 85.97507 36797 ft 498 kts 77°
2026-05-04 12:36 22.77930 86.01173 36614 ft 501 kts 77°
2026-05-04 12:37 22.78700 86.04873 36085 ft 504 kts 78°
2026-05-04 12:37 22.79470 86.08574 35546 ft 502 kts 78°
2026-05-04 12:37 22.80228 86.12248 35139 ft 498 kts 80°
2026-05-04 12:37 22.80462 86.15957 34673 ft 491 kts 98°
2026-05-04 12:38 22.79832 86.19552 34206 ft 483 kts 112°
2026-05-04 12:38 22.78425 86.22804 33739 ft 473 kts 126°
2026-05-04 12:38 22.76699 86.25823 33220 ft 470 kts 127°
2026-05-04 12:38 22.74964 86.28749 32803 ft 466 kts 127°
2026-05-04 12:39 22.73198 86.31733 32368 ft 463 kts 127°
2026-05-04 12:39 22.71484 86.34676 31948 ft 460 kts 127°
2026-05-04 12:39 22.69801 86.37612 31536 ft 457 kts 126°
2026-05-04 12:39 22.68140 86.40530 31134 ft 454 kts 126°
2026-05-04 12:40 22.66489 86.43435 30720 ft 451 kts 126°
2026-05-04 12:40 22.64862 86.46328 30306 ft 450 kts 122°
2026-05-04 12:40 22.63745 86.49514 29898 ft 456 kts 104°
2026-05-04 12:40 22.63489 86.52910 29666 ft 451 kts 92°
2026-05-04 12:41 22.63540 86.56283 29227 ft 448 kts 90°
2026-05-04 12:41 22.63651 86.59603 28805 ft 445 kts 89°
2026-05-04 12:41 22.63776 86.62934 28386 ft 441 kts 89°
2026-05-04 12:41 22.63890 86.66234 27966 ft 438 kts 90°
2026-05-04 12:42 22.63987 86.69509 27557 ft 434 kts 90°
2026-05-04 12:42 22.64071 86.72768 27144 ft 431 kts 90°
2026-05-04 12:42 22.64144 86.76007 26738 ft 428 kts 90°
2026-05-04 12:42 22.64211 86.79221 26335 ft 426 kts 90°
2026-05-04 12:43 22.64275 86.82407 25928 ft 423 kts 90°
2026-05-04 12:43 22.64337 86.85586 25527 ft 420 kts 90°
2026-05-04 12:43 22.64397 86.88741 25112 ft 418 kts 90°
2026-05-04 12:43 22.64457 86.91877 24704 ft 416 kts 90°
2026-05-04 12:44 22.64517 86.95001 24304 ft 414 kts 90°
2026-05-04 12:44 22.64575 86.98116 23893 ft 413 kts 90°
2026-05-04 12:44 22.64633 87.01210 23492 ft 411 kts 90°
2026-05-04 12:44 22.64691 87.04296 23033 ft 409 kts 90°
2026-05-04 12:45 22.64747 87.07364 22611 ft 406 kts 90°
2026-05-04 12:45 22.64803 87.10402 22207 ft 402 kts 90°
2026-05-04 12:45 22.64857 87.13414 21803 ft 399 kts 90°
2026-05-04 12:45 22.64911 87.16400 21411 ft 395 kts 90°
2026-05-04 12:46 22.64963 87.19361 21030 ft 392 kts 90°
2026-05-04 12:46 22.65014 87.22302 20646 ft 389 kts 90°
2026-05-04 12:46 22.65065 87.25218 20267 ft 386 kts 90°
2026-05-04 12:46 22.65114 87.28110 19884 ft 383 kts 90°
2026-05-04 12:47 22.65163 87.30980 19506 ft 380 kts 89°
2026-05-04 12:47 22.65195 87.32871 19267 ft 379 kts 89°
2026-05-04 12:47 22.65242 87.35714 18893 ft 377 kts 89°
2026-05-04 12:47 22.65288 87.38543 18512 ft 375 kts 89°
2026-05-04 12:48 22.65334 87.41358 18135 ft 373 kts 89°
2026-05-04 12:48 22.65379 87.44156 17715 ft 371 kts 89°
2026-05-04 12:48 22.65424 87.46939 17321 ft 368 kts 89°
2026-05-04 12:48 22.65467 87.49696 16944 ft 365 kts 89°
2026-05-04 12:49 22.65510 87.52431 16570 ft 362 kts 89°
2026-05-04 12:49 22.65552 87.55143 16212 ft 359 kts 89°
2026-05-04 12:49 22.65593 87.57837 15853 ft 356 kts 89°
2026-05-04 12:49 22.65633 87.60508 15494 ft 353 kts 89°
2026-05-04 12:50 22.65673 87.63156 15146 ft 351 kts 89°
2026-05-04 12:50 22.65712 87.65787 14795 ft 349 kts 89°
2026-05-04 12:50 22.65750 87.68404 14452 ft 346 kts 89°
2026-05-04 12:50 22.65788 87.70993 14106 ft 344 kts 89°
2026-05-04 12:51 22.65825 87.73585 13757 ft 342 kts 89°
2026-05-04 12:51 22.65861 87.76150 13390 ft 340 kts 89°
2026-05-04 12:51 22.65897 87.78702 13011 ft 338 kts 89°
2026-05-04 12:51 22.65932 87.81233 12656 ft 335 kts 89°
2026-05-04 12:52 22.65966 87.83743 12308 ft 332 kts 89°
2026-05-04 12:52 22.65999 87.86204 11976 ft 329 kts 89°
2026-05-04 12:52 22.66033 87.88701 11634 ft 327 kts 89°
2026-05-04 12:52 22.66065 87.91120 11306 ft 324 kts 89°
2026-05-04 12:53 22.66097 87.93552 10971 ft 322 kts 89°
2026-05-04 12:53 22.66128 87.95969 10640 ft 320 kts 89°
2026-05-04 12:53 22.66159 87.98368 10308 ft 318 kts 89°
2026-05-04 12:53 22.65984 88.00729 10095 ft 312 kts 105°
2026-05-04 12:54 22.65096 88.02826 9969 ft 302 kts 122°
2026-05-04 12:54 22.63988 88.04716 9856 ft 293 kts 123°
2026-05-04 12:54 22.62887 88.06544 9639 ft 289 kts 123°
2026-05-04 12:54 22.62186 88.07710 9449 ft 288 kts 123°
2026-05-04 12:55 22.61345 88.09115 9223 ft 287 kts 123°
2026-05-04 12:55 22.60265 88.10929 8942 ft 286 kts 123°
2026-05-04 12:55 22.59542 88.12150 8745 ft 285 kts 123°
2026-05-04 12:55 22.58481 88.13949 8459 ft 283 kts 123°
2026-05-04 12:56 22.57425 88.15739 8170 ft 281 kts 123°
2026-05-04 12:56 22.56374 88.17522 7890 ft 280 kts 123°
2026-05-04 12:56 22.55330 88.19301 7610 ft 279 kts 122°
2026-05-04 12:56 22.54348 88.21100 7335 ft 278 kts 120°
2026-05-04 12:57 22.53396 88.22890 7212 ft 270 kts 120°
2026-05-04 12:57 22.52469 88.24625 7079 ft 263 kts 120°
2026-05-04 12:57 22.51563 88.26311 6970 ft 256 kts 120°
2026-05-04 12:57 22.50672 88.27940 6845 ft 248 kts 125°
2026-05-04 12:58 22.49409 88.29136 6718 ft 240 kts 156°
2026-05-04 12:58 22.47799 88.29504 6499 ft 237 kts 181°
2026-05-04 12:58 22.46168 88.29300 6282 ft 236 kts 189°
2026-05-04 12:58 22.44557 88.28977 6027 ft 235 kts 190°
2026-05-04 12:59 22.42949 88.28654 5778 ft 234 kts 189°
2026-05-04 12:59 22.41345 88.28341 5529 ft 234 kts 189°
2026-05-04 12:59 22.39749 88.28041 5292 ft 232 kts 186°
2026-05-04 12:59 22.38199 88.28263 5014 ft 229 kts 152°
2026-05-04 13:00 22.37022 88.29394 4778 ft 225 kts 121°
2026-05-04 13:00 22.36580 88.30990 4552 ft 224 kts 90°
2026-05-04 13:00 22.36914 88.32569 4320 ft 225 kts 64°
2026-05-04 13:00 22.37853 88.33903 4123 ft 222 kts 47°
2026-05-04 13:01 22.38937 88.35063 3882 ft 218 kts 46°
2026-05-04 13:01 22.40011 88.36190 3625 ft 213 kts 46°
2026-05-04 13:01 22.41060 88.37299 3373 ft 209 kts 47°
2026-05-04 13:01 22.42086 88.38395 3126 ft 206 kts 47°
2026-05-04 13:02 22.43097 88.39477 2892 ft 204 kts 47°
2026-05-04 13:02 22.44077 88.40529 2886 ft 196 kts 47°
2026-05-04 13:02 22.45067 88.41584 2906 ft 204 kts 43°
2026-05-04 13:02 22.46365 88.42207 2890 ft 209 kts 11°
2026-05-04 13:03 22.47792 88.42492 2908 ft 207 kts 13°
2026-05-04 13:03 22.49211 88.42743 2824 ft 207 kts
2026-05-04 13:03 22.50627 88.42932 2585 ft 204 kts
2026-05-04 13:03 22.52030 88.43105 2329 ft 201 kts
2026-05-04 13:04 22.53410 88.43274 2071 ft 201 kts
2026-05-04 13:04 22.54808 88.43446 1816 ft 201 kts
2026-05-04 13:04 22.56195 88.43618 1563 ft 199 kts
2026-05-04 13:04 22.57556 88.43786 1303 ft 193 kts
2026-05-04 13:05 22.58849 88.43945 1081 ft 179 kts
2026-05-04 13:05 22.60013 88.44089 886 ft 158 kts
2026-05-04 13:05 22.61042 88.44216 690 ft 142 kts 10°
2026-05-04 13:05 22.62041 88.44344 535 ft 143 kts
2026-05-04 13:06 22.63006 88.44460 316 ft 135 kts
2026-05-04 13:06 22.63880 88.44580 101 ft 120 kts 10°
2026-05-04 13:06 22.64705 88.44687 30 ft 113 kts
2026-05-04 13:06 22.65381 88.44773 28 ft 81 kts
2026-05-04 13:07 22.65826 88.44825 29 ft 48 kts
2026-05-04 13:07 22.66096 88.44855 28 ft 26 kts
2026-05-04 13:07 22.66138 88.44834 28 ft 3 kts 302°
2026-05-04 13:07 22.66140 88.44814 28 ft 3 kts 263°
2026-05-04 13:08 22.66138 88.44794 28 ft 3 kts 266°
2026-05-04 13:08 22.66137 88.44774 28 ft 3 kts 266°
2026-05-04 13:08 22.66138 88.44756 28 ft 2 kts 282°
2026-05-04 13:08 22.66141 88.44738 28 ft 2 kts 281°
2026-05-04 13:09 22.66138 88.44720 27 ft 3 kts 253°
2026-05-04 13:09 22.66118 88.44688 27 ft 8 kts 226°
2026-05-04 13:09 22.66061 88.44647 28 ft 10 kts 210°
2026-05-04 13:09 22.66004 88.44609 28 ft 10 kts 212°
2026-05-04 13:10 22.65948 88.44572 29 ft 9 kts 212°
2026-05-04 13:10 22.65894 88.44535 29 ft 9 kts 211°
2026-05-04 13:10 22.65838 88.44506 28 ft 9 kts 193°
2026-05-04 13:10 22.65777 88.44498 28 ft 9 kts 187°
2026-05-04 13:11 22.65719 88.44491 28 ft 8 kts 186°
2026-05-04 13:11 22.65662 88.44485 28 ft 8 kts 186°
2026-05-04 13:11 22.65607 88.44478 28 ft 8 kts 187°
2026-05-04 13:11 22.65553 88.44471 28 ft 8 kts 186°
2026-05-04 13:12 22.65502 88.44465 28 ft 7 kts 186°
2026-05-04 13:12 22.65452 88.44459 28 ft 7 kts 186°
2026-05-04 13:12 22.65378 88.44451 28 ft 12 kts 186°
2026-05-04 13:12 22.65297 88.44441 27 ft 12 kts 185°
2026-05-04 13:13 22.65217 88.44432 27 ft 11 kts 187°
2026-05-04 13:13 22.65140 88.44423 27 ft 11 kts 186°
2026-05-04 13:13 22.65066 88.44407 27 ft 11 kts 184°
2026-05-04 13:13 22.64993 88.44405 27 ft 10 kts 187°
2026-05-04 13:14 22.64922 88.44396 27 ft 10 kts 186°
2026-05-04 13:14 22.64853 88.44388 27 ft 10 kts 186°
2026-05-04 13:14 22.64786 88.44380 27 ft 10 kts 186°
2026-05-04 13:14 22.64720 88.44373 27 ft 9 kts 186°
2026-05-04 13:15 22.64657 88.44364 27 ft 9 kts 186°
2026-05-04 13:15 22.64595 88.44357 27 ft 9 kts 187°
2026-05-04 13:15 22.64535 88.44350 27 ft 9 kts 186°
2026-05-04 13:15 22.64476 88.44343 27 ft 8 kts 186°
2026-05-04 13:16 22.64420 88.44336 28 ft 8 kts 186°
2026-05-04 13:16 22.64365 88.44330 28 ft 8 kts 186°
2026-05-04 13:16 22.64311 88.44324 28 ft 8 kts 186°
2026-05-04 13:16 22.64260 88.44318 28 ft 7 kts 186°
2026-05-04 13:17 22.64211 88.44312 28 ft 7 kts 186°
2026-05-04 13:17 22.64162 88.44306 27 ft 7 kts 186°
2026-05-04 13:17 22.64115 88.44301 27 ft 7 kts 186°
2026-05-04 13:17 22.64068 88.44296 27 ft 7 kts 185°
2026-05-04 13:18 22.64012 88.44280 27 ft 7 kts 217°
2026-05-04 13:18 22.64002 88.44260 28 ft 3 kts 254°
2026-05-04 13:18 22.64004 88.44239 27 ft 3 kts 282°
2026-05-04 13:18 22.64009 88.44214 27 ft 6 kts 283°
2026-05-04 13:19 22.64023 88.44143 28 ft 6 kts 306°
2026-05-04 13:19 22.64063 88.44128 28 ft 6 kts
2026-05-04 13:19 22.64105 88.44132 28 ft 6 kts
2026-05-04 13:19 22.64147 88.44138 28 ft 6 kts
2026-05-04 13:20 22.64188 88.44143 28 ft 6 kts
2026-05-04 13:20 22.64216 88.44126 28 ft 0 kts 301°
2026-05-04 13:20 22.64219 88.44113 28 ft 7 kts 280°
2026-05-04 13:20 22.64221 88.44070 28 ft 4 kts 276°
2026-05-04 13:21 22.64222 88.44061 28 ft 0 kts 274°
2026-05-04 13:21 22.64222 88.44059 28 ft 0 kts 274°